Simultaneous Nadir Overpasses (SNOs) Predictions

Prediction of SNOs between METOP-B and TERRA Satellite Orbit:

Table of predicted SNOs for the next 14.0 days since TLE Epoch: 8/15/2020
Index Date (METOP-B) Time (METOP-B) Lat,Lon (METOP-B) SZA (METOP-B ) Date (TERRA) Time (TERRA) Lat,Lon (TERRA) SZA (TERRA ) Distance(km) Time Diff (sec)
1 08/17/2020 01:30:58 -81.33, 24.82 109.22 08/17/2020 01:31:43 -81.32, 24.78 109.20 0.67 45
2 08/17/2020 02:21:38 81.33,-167.42 70.85 08/17/2020 02:21:09 81.33,-167.44 70.83 0.33 29
3 08/19/2020 21:05:17 -81.33, 91.54 108.25 08/19/2020 21:05:58 -81.33, 91.41 108.25 2.19 41
4 08/19/2020 21:55:58 81.33,-101.11 71.77 08/19/2020 21:55:25 81.32,-101.21 71.73 1.95 33
5 08/22/2020 16:39:38 -81.33, 157.86 107.31 08/22/2020 16:40:15 -81.34, 157.89 107.28 1.00 37
6 08/22/2020 17:30:18 81.33, -34.42 72.75 08/22/2020 17:29:41 81.34, -34.38 72.75 1.22 37
7 08/25/2020 12:13:59 -81.33,-135.83 106.34 08/25/2020 12:14:33 -81.33,-135.80 106.32 0.57 34
8 08/25/2020 13:04:39 81.33, 31.86 73.72 08/25/2020 13:03:59 81.33, 31.91 73.71 0.91 40
9 08/28/2020 07:48:19 -81.33, -69.52 105.35 08/28/2020 07:48:51 -81.32, -69.64 105.36 2.35 32
